Year,Month,Day,Hour,Minute,Value (Times are PST for temperature in C)
2016,08,18,00,00,15.70
2016,08,18,00,01,15.70
2016,08,18,00,02,15.70
2016,08,18,00,03,15.60
2016,08,18,00,04,15.60
2016,08,18,00,05,15.60
2016,08,18,00,06,15.60
2016,08,18,00,07,15.60
2016,08,18,00,08,15.60
2016,08,18,00,09,15.60
2016,08,18,00,10,15.70
2016,08,18,00,11,15.70
2016,08,18,00,12,15.70
2016,08,18,00,13,15.80
2016,08,18,00,14,15.80
2016,08,18,00,15,15.90
2016,08,18,00,16,15.90
2016,08,18,00,17,16.00
2016,08,18,00,18,16.10
2016,08,18,00,19,16.10
2016,08,18,00,20,16.10
2016,08,18,00,21,16.20
2016,08,18,00,22,16.20
2016,08,18,00,23,16.30
2016,08,18,00,24,16.30
2016,08,18,00,25,16.40
2016,08,18,00,26,16.40
2016,08,18,00,27,16.50
2016,08,18,00,28,16.60
2016,08,18,00,29,16.60
2016,08,18,00,30,16.70
2016,08,18,00,31,16.80
2016,08,18,00,32,16.90
2016,08,18,00,33,17.00
2016,08,18,00,34,17.00
2016,08,18,00,35,17.00
2016,08,18,00,36,17.00
2016,08,18,00,37,17.00
2016,08,18,00,38,17.00
2016,08,18,00,39,17.00
2016,08,18,00,40,16.90
2016,08,18,00,41,17.00
2016,08,18,00,42,17.00
2016,08,18,00,43,17.00
2016,08,18,00,44,17.00
2016,08,18,00,45,17.00
2016,08,18,00,46,17.00
2016,08,18,00,47,17.00
2016,08,18,00,48,17.00
2016,08,18,00,49,17.00
2016,08,18,00,50,17.00
2016,08,18,00,51,16.90
2016,08,18,00,52,16.90
2016,08,18,00,53,16.90
2016,08,18,00,54,16.90
2016,08,18,00,55,16.90
2016,08,18,00,56,16.90
2016,08,18,00,57,16.90
2016,08,18,00,58,16.90
2016,08,18,00,59,16.90
2016,08,18,01,00,16.90
2016,08,18,01,01,16.90
2016,08,18,01,02,16.90
2016,08,18,01,03,17.00
2016,08,18,01,04,17.00
2016,08,18,01,05,17.10
2016,08,18,01,06,17.10
2016,08,18,01,07,17.10
2016,08,18,01,08,17.20
2016,08,18,01,09,17.30
2016,08,18,01,10,17.30
2016,08,18,01,11,17.40
2016,08,18,01,12,17.50
2016,08,18,01,13,17.50
2016,08,18,01,14,17.50
2016,08,18,01,15,17.60
2016,08,18,01,16,17.70
2016,08,18,01,17,17.70
2016,08,18,01,18,17.80
2016,08,18,01,19,17.80
2016,08,18,01,20,17.80
2016,08,18,01,21,17.80
2016,08,18,01,22,17.80
2016,08,18,01,23,17.80
2016,08,18,01,24,17.70
2016,08,18,01,25,17.80
2016,08,18,01,26,17.70
2016,08,18,01,27,17.60
2016,08,18,01,28,17.60
2016,08,18,01,29,17.50
2016,08,18,01,30,17.40
2016,08,18,01,31,17.30
2016,08,18,01,32,17.20
2016,08,18,01,33,17.10
2016,08,18,01,34,17.10
2016,08,18,01,35,17.00
2016,08,18,01,36,17.00
2016,08,18,01,37,16.90
2016,08,18,01,38,16.90
2016,08,18,01,39,16.90
2016,08,18,01,40,16.90
2016,08,18,01,41,16.90
2016,08,18,01,42,16.80
2016,08,18,01,43,16.80
2016,08,18,01,44,16.80
2016,08,18,01,45,16.80
2016,08,18,01,46,16.80
2016,08,18,01,47,16.80
2016,08,18,01,48,16.80
2016,08,18,01,49,16.80
2016,08,18,01,50,16.80
2016,08,18,01,51,16.80
2016,08,18,01,52,16.80
2016,08,18,01,53,16.80
2016,08,18,01,54,16.80
2016,08,18,01,55,16.90
2016,08,18,01,56,16.90
2016,08,18,01,57,16.90
2016,08,18,01,58,17.00
2016,08,18,01,59,17.10
2016,08,18,02,00,17.10
2016,08,18,02,01,17.10
2016,08,18,02,02,17.10
2016,08,18,02,03,17.10
2016,08,18,02,04,17.10
2016,08,18,02,05,17.20
2016,08,18,02,06,17.20
2016,08,18,02,07,17.30
2016,08,18,02,08,17.30
2016,08,18,02,09,17.40
2016,08,18,02,10,17.50
2016,08,18,02,11,17.50
2016,08,18,02,12,17.60
2016,08,18,02,13,17.60
2016,08,18,02,14,17.70
2016,08,18,02,15,17.70
2016,08,18,02,16,17.70
2016,08,18,02,17,17.70
2016,08,18,02,18,17.70
2016,08,18,02,19,17.60
2016,08,18,02,20,17.50
2016,08,18,02,21,17.30
2016,08,18,02,22,17.20
2016,08,18,02,23,17.00
2016,08,18,02,24,16.80
2016,08,18,02,25,16.60
2016,08,18,02,26,16.40
2016,08,18,02,27,16.30
2016,08,18,02,28,16.20
2016,08,18,02,29,16.10
2016,08,18,02,30,16.10
2016,08,18,02,31,16.00
2016,08,18,02,32,15.90
2016,08,18,02,33,15.90
2016,08,18,02,34,15.80
2016,08,18,02,35,15.80
2016,08,18,02,36,15.70
2016,08,18,02,37,15.60
2016,08,18,02,38,15.50
2016,08,18,02,39,15.40
2016,08,18,02,40,15.30
2016,08,18,02,41,15.30
2016,08,18,02,42,15.30
2016,08,18,02,43,15.20
2016,08,18,02,44,15.20
2016,08,18,02,45,15.20
2016,08,18,02,46,15.20
2016,08,18,02,47,15.20
2016,08,18,02,48,15.20
2016,08,18,02,49,15.20
2016,08,18,02,50,15.30
2016,08,18,02,51,15.40
2016,08,18,02,52,15.40
2016,08,18,02,53,15.50
2016,08,18,02,54,15.60
2016,08,18,02,55,15.60
2016,08,18,02,56,15.70
2016,08,18,02,57,15.70
2016,08,18,02,58,15.80
2016,08,18,02,59,15.90
2016,08,18,03,00,16.10
2016,08,18,03,01,16.30
2016,08,18,03,02,16.50
2016,08,18,03,03,16.60
2016,08,18,03,04,16.80
2016,08,18,03,05,16.80
2016,08,18,03,06,16.80
2016,08,18,03,07,16.80
2016,08,18,03,08,16.80
2016,08,18,03,09,16.70
2016,08,18,03,10,16.60
2016,08,18,03,11,16.50
2016,08,18,03,12,16.30
2016,08,18,03,13,16.20
2016,08,18,03,14,16.10
2016,08,18,03,15,16.00
2016,08,18,03,16,15.90
2016,08,18,03,17,15.80
2016,08,18,03,18,15.70
2016,08,18,03,19,15.70
2016,08,18,03,20,15.60
2016,08,18,03,21,15.60
2016,08,18,03,22,15.60
2016,08,18,03,23,15.60
2016,08,18,03,24,15.50
2016,08,18,03,25,15.50
2016,08,18,03,26,15.50
2016,08,18,03,27,15.40
2016,08,18,03,28,15.40
2016,08,18,03,29,15.40
2016,08,18,03,30,15.40
2016,08,18,03,31,15.40
2016,08,18,03,32,15.50
2016,08,18,03,33,15.50
2016,08,18,03,34,15.60
2016,08,18,03,35,15.60
2016,08,18,03,36,15.70
2016,08,18,03,37,15.70
2016,08,18,03,38,15.70
2016,08,18,03,39,15.70
2016,08,18,03,40,15.60
2016,08,18,03,41,15.50
2016,08,18,03,42,15.40
2016,08,18,03,43,15.40
2016,08,18,03,44,15.40
2016,08,18,03,45,15.30
2016,08,18,03,46,15.30
2016,08,18,03,47,15.30
2016,08,18,03,48,15.30
2016,08,18,03,49,15.30
2016,08,18,03,50,15.30
2016,08,18,03,51,15.30
2016,08,18,03,52,15.30
2016,08,18,03,53,15.30
2016,08,18,03,54,15.30
2016,08,18,03,55,15.30
2016,08,18,03,56,15.30
2016,08,18,03,57,15.30
2016,08,18,03,58,15.30
2016,08,18,03,59,15.30
2016,08,18,04,00,15.30
2016,08,18,04,01,15.30
2016,08,18,04,02,15.40
2016,08,18,04,03,15.40
2016,08,18,04,04,15.40
2016,08,18,04,05,15.40
2016,08,18,04,06,15.40
2016,08,18,04,07,15.40
2016,08,18,04,08,15.40
2016,08,18,04,09,15.40
2016,08,18,04,10,15.50
2016,08,18,04,11,15.50
2016,08,18,04,12,15.50
2016,08,18,04,13,15.50
2016,08,18,04,14,15.50
2016,08,18,04,15,15.50
2016,08,18,04,16,15.50
2016,08,18,04,17,15.50
2016,08,18,04,18,15.40
2016,08,18,04,19,15.40
2016,08,18,04,20,15.40
2016,08,18,04,21,15.40
2016,08,18,04,22,15.40
2016,08,18,04,23,15.40
2016,08,18,04,24,15.40
2016,08,18,04,25,15.40
2016,08,18,04,26,15.40
2016,08,18,04,27,15.40
2016,08,18,04,28,15.40
2016,08,18,04,29,15.40
2016,08,18,04,30,15.40
2016,08,18,04,31,15.50
2016,08,18,04,32,15.50
2016,08,18,04,33,15.60
2016,08,18,04,34,15.60
2016,08,18,04,35,15.60
2016,08,18,04,36,15.60
2016,08,18,04,37,15.60
2016,08,18,04,38,15.60
2016,08,18,04,39,15.60
2016,08,18,04,40,15.60
2016,08,18,04,41,15.60
2016,08,18,04,42,15.60
2016,08,18,04,43,15.60
2016,08,18,04,44,15.60
2016,08,18,04,45,15.60
2016,08,18,04,46,15.60
2016,08,18,04,47,15.70
2016,08,18,04,48,15.70
2016,08,18,04,49,15.70
2016,08,18,04,50,15.70
2016,08,18,04,51,15.70
2016,08,18,04,52,15.70
2016,08,18,04,53,15.70
2016,08,18,04,54,15.80
2016,08,18,04,55,15.80
2016,08,18,04,56,15.90
2016,08,18,04,57,16.00
2016,08,18,04,58,16.10
2016,08,18,04,59,16.20
2016,08,18,05,00,16.30
2016,08,18,05,01,16.30
2016,08,18,05,02,16.40
2016,08,18,05,03,16.50
2016,08,18,05,04,16.50
2016,08,18,05,05,16.60
2016,08,18,05,06,16.70
2016,08,18,05,07,16.70
2016,08,18,05,08,16.70
2016,08,18,05,09,16.80
2016,08,18,05,10,16.80
2016,08,18,05,11,16.80
2016,08,18,05,12,16.80
2016,08,18,05,13,16.80
2016,08,18,05,14,16.80
2016,08,18,05,15,16.80
2016,08,18,05,16,16.80
2016,08,18,05,17,16.80
2016,08,18,05,18,16.80
2016,08,18,05,19,16.80
2016,08,18,05,20,16.80
2016,08,18,05,21,16.80
2016,08,18,05,22,16.80
2016,08,18,05,23,16.80
2016,08,18,05,24,16.80
2016,08,18,05,25,16.80
2016,08,18,05,26,16.70
2016,08,18,05,27,16.70
2016,08,18,05,28,16.60
2016,08,18,05,29,16.60
2016,08,18,05,30,16.60
2016,08,18,05,31,16.60
2016,08,18,05,32,16.50
2016,08,18,05,33,16.50
2016,08,18,05,34,16.50
2016,08,18,05,35,16.50
2016,08,18,05,36,16.50
2016,08,18,05,37,16.50
2016,08,18,05,38,16.50
2016,08,18,05,39,16.50
2016,08,18,05,40,16.40
2016,08,18,05,41,16.40
2016,08,18,05,42,16.40
2016,08,18,05,43,16.40
2016,08,18,05,44,16.40
2016,08,18,05,45,16.40
2016,08,18,05,46,16.40
2016,08,18,05,47,16.40
2016,08,18,05,48,16.40
2016,08,18,05,49,16.30
2016,08,18,05,50,16.30
2016,08,18,05,51,16.30
2016,08,18,05,52,16.30
2016,08,18,05,53,16.30
2016,08,18,05,54,16.30
2016,08,18,05,55,16.30
2016,08,18,05,56,16.20
2016,08,18,05,57,16.20
2016,08,18,05,58,16.20
2016,08,18,05,59,16.20
2016,08,18,06,00,16.20
2016,08,18,06,01,16.20
2016,08,18,06,02,16.20
2016,08,18,06,03,16.20
2016,08,18,06,04,16.20
2016,08,18,06,05,16.20
2016,08,18,06,06,16.20
2016,08,18,06,07,16.30
2016,08,18,06,08,16.30
2016,08,18,06,09,16.30
2016,08,18,06,10,16.40
2016,08,18,06,11,16.40
2016,08,18,06,12,16.40
2016,08,18,06,13,16.50
2016,08,18,06,14,16.50
2016,08,18,06,15,16.50
2016,08,18,06,16,16.60
2016,08,18,06,17,16.60
2016,08,18,06,18,16.60
2016,08,18,06,19,16.60
2016,08,18,06,20,16.60
2016,08,18,06,21,16.60
2016,08,18,06,22,16.60
2016,08,18,06,23,16.60
2016,08,18,06,24,16.60
2016,08,18,06,25,16.60
2016,08,18,06,26,16.70
2016,08,18,06,27,16.70
2016,08,18,06,28,16.70
2016,08,18,06,29,16.70
2016,08,18,06,30,16.70
2016,08,18,06,31,16.70
2016,08,18,06,32,16.70
2016,08,18,06,33,16.80
2016,08,18,06,34,16.80
2016,08,18,06,35,16.80
2016,08,18,06,36,16.80
2016,08,18,06,37,16.90
2016,08,18,06,38,16.90
2016,08,18,06,39,16.90
2016,08,18,06,40,16.90
2016,08,18,06,41,17.00
2016,08,18,06,42,17.00
2016,08,18,06,43,17.00
2016,08,18,06,44,17.10
2016,08,18,06,45,17.10
2016,08,18,06,46,17.10
2016,08,18,06,47,17.10
2016,08,18,06,48,17.20
2016,08,18,06,49,17.20
2016,08,18,06,50,17.20
2016,08,18,06,51,17.20
2016,08,18,06,52,17.30
2016,08,18,06,53,17.30
2016,08,18,06,54,17.40
2016,08,18,06,55,17.50
2016,08,18,06,56,17.60
2016,08,18,06,57,17.60
2016,08,18,06,58,17.70
2016,08,18,06,59,17.80
2016,08,18,07,00,17.90
2016,08,18,07,01,17.90
2016,08,18,07,02,18.00
2016,08,18,07,03,18.10
2016,08,18,07,04,18.20
2016,08,18,07,05,18.30
2016,08,18,07,06,18.40
2016,08,18,07,07,18.50
2016,08,18,07,08,18.60
2016,08,18,07,09,18.60
2016,08,18,07,10,18.70
2016,08,18,07,11,18.70
2016,08,18,07,12,18.80
2016,08,18,07,13,18.80
2016,08,18,07,14,18.90
2016,08,18,07,15,18.90
2016,08,18,07,16,19.00
2016,08,18,07,17,19.00
2016,08,18,07,18,19.10
2016,08,18,07,19,19.10
2016,08,18,07,20,19.20
2016,08,18,07,21,19.20
2016,08,18,07,22,19.30
2016,08,18,07,23,19.30
2016,08,18,07,24,19.40
2016,08,18,07,25,19.50
2016,08,18,07,26,19.50
2016,08,18,07,27,19.60
2016,08,18,07,28,19.60
2016,08,18,07,29,19.70
2016,08,18,07,30,19.70
2016,08,18,07,31,19.80
2016,08,18,07,32,19.80
2016,08,18,07,33,19.80
2016,08,18,07,34,19.80
2016,08,18,07,35,19.90
2016,08,18,07,36,19.90
2016,08,18,07,37,20.00
2016,08,18,07,38,20.00
2016,08,18,07,39,20.10
2016,08,18,07,40,20.10
2016,08,18,07,41,20.20
2016,08,18,07,42,20.20
2016,08,18,07,43,20.20
2016,08,18,07,44,20.30
2016,08,18,07,45,20.30
2016,08,18,07,46,20.30
2016,08,18,07,47,20.30
2016,08,18,07,48,20.40
2016,08,18,07,49,20.40
2016,08,18,07,50,20.40
2016,08,18,07,51,20.40
2016,08,18,07,52,20.50
2016,08,18,07,53,20.50
2016,08,18,07,54,20.50
2016,08,18,07,55,20.60
2016,08,18,07,56,20.60
2016,08,18,07,57,20.60
2016,08,18,07,58,20.60
2016,08,18,07,59,20.70
2016,08,18,08,00,20.70
2016,08,18,08,01,20.70
2016,08,18,08,02,20.80
2016,08,18,08,03,20.80
2016,08,18,08,04,20.80
2016,08,18,08,05,20.80
2016,08,18,08,06,20.80
2016,08,18,08,07,20.80
2016,08,18,08,08,20.90
2016,08,18,08,09,20.90
2016,08,18,08,10,20.90
2016,08,18,08,11,20.90
2016,08,18,08,12,21.00
2016,08,18,08,13,21.00
2016,08,18,08,14,21.00
2016,08,18,08,15,21.00
2016,08,18,08,16,21.10
2016,08,18,08,17,21.10
2016,08,18,08,18,21.10
2016,08,18,08,19,21.10
2016,08,18,08,20,21.10
2016,08,18,08,21,21.10
2016,08,18,08,22,21.10
2016,08,18,08,23,21.00
2016,08,18,08,24,20.80
2016,08,18,08,25,20.70
2016,08,18,08,26,20.60
2016,08,18,08,27,20.60
2016,08,18,08,28,20.50
2016,08,18,08,29,20.40
2016,08,18,08,30,20.40
2016,08,18,08,31,20.40
2016,08,18,08,32,20.40
2016,08,18,08,33,20.40
2016,08,18,08,34,20.40
2016,08,18,08,35,20.40
2016,08,18,08,36,20.50
2016,08,18,08,37,20.60
2016,08,18,08,38,20.60
2016,08,18,08,39,20.70
2016,08,18,08,40,20.70
2016,08,18,08,41,20.70
2016,08,18,08,42,20.70
2016,08,18,08,43,20.70
2016,08,18,08,44,20.70
2016,08,18,08,45,20.80
2016,08,18,08,46,20.80
2016,08,18,08,47,20.80
2016,08,18,08,48,20.90
2016,08,18,08,49,21.00
2016,08,18,08,50,21.00
2016,08,18,08,51,21.10
2016,08,18,08,52,21.20
2016,08,18,08,53,21.30
2016,08,18,08,54,21.30
2016,08,18,08,55,21.40
2016,08,18,08,56,21.40
2016,08,18,08,57,21.50
2016,08,18,08,58,21.60
2016,08,18,08,59,21.60
2016,08,18,09,00,21.70
2016,08,18,09,01,21.70
2016,08,18,09,02,21.70
2016,08,18,09,03,21.70
2016,08,18,09,04,21.80
2016,08,18,09,05,21.80
2016,08,18,09,06,21.80
2016,08,18,09,07,21.80
2016,08,18,09,08,21.90
2016,08,18,09,09,21.90
2016,08,18,09,10,21.90
2016,08,18,09,11,22.00
2016,08,18,09,12,22.00
2016,08,18,09,13,22.00
2016,08,18,09,14,22.10
2016,08,18,09,15,22.10
2016,08,18,09,16,22.10
2016,08,18,09,17,22.10
2016,08,18,09,18,22.10
2016,08,18,09,19,22.20
2016,08,18,09,20,22.20
2016,08,18,09,21,22.30
2016,08,18,09,22,22.30
2016,08,18,09,23,22.40
2016,08,18,09,24,22.50
2016,08,18,09,25,22.50
2016,08,18,09,26,22.60
2016,08,18,09,27,22.70
2016,08,18,09,28,22.70
2016,08,18,09,29,22.70
2016,08,18,09,30,22.80
2016,08,18,09,31,22.80
2016,08,18,09,32,22.80
2016,08,18,09,33,22.70
2016,08,18,09,34,22.70
2016,08,18,09,35,22.70
2016,08,18,09,36,22.70
2016,08,18,09,37,22.80
2016,08,18,09,38,22.80
2016,08,18,09,39,22.80
2016,08,18,09,40,22.80
2016,08,18,09,41,22.90
2016,08,18,09,42,22.90
2016,08,18,09,43,23.00
2016,08,18,09,44,23.10
2016,08,18,09,45,23.10
2016,08,18,09,46,23.20
2016,08,18,09,47,23.30
2016,08,18,09,48,23.40
2016,08,18,09,49,23.40
2016,08,18,09,50,23.40
2016,08,18,09,51,23.30
2016,08,18,09,52,23.30
2016,08,18,09,53,23.30
2016,08,18,09,54,23.30
2016,08,18,09,55,23.20
2016,08,18,09,56,23.20
2016,08,18,09,57,23.10
2016,08,18,09,58,23.10
2016,08,18,09,59,23.10
2016,08,18,10,00,23.20
2016,08,18,10,01,23.30
2016,08,18,10,02,23.30
2016,08,18,10,03,23.30
2016,08,18,10,04,23.30
2016,08,18,10,05,23.30
2016,08,18,10,06,23.30
2016,08,18,10,07,23.40
2016,08,18,10,08,23.40
2016,08,18,10,09,23.40
2016,08,18,10,10,23.50
2016,08,18,10,11,23.50
2016,08,18,10,12,23.60
2016,08,18,10,13,23.60
2016,08,18,10,14,23.60
2016,08,18,10,15,23.50
2016,08,18,10,16,23.40
2016,08,18,10,17,23.30
2016,08,18,10,18,23.30
2016,08,18,10,19,23.20
2016,08,18,10,20,23.10
2016,08,18,10,21,23.00
2016,08,18,10,22,22.90
2016,08,18,10,23,22.90
2016,08,18,10,24,22.90
2016,08,18,10,25,22.90
2016,08,18,10,26,23.00
2016,08,18,10,27,23.00
2016,08,18,10,28,23.10
2016,08,18,10,29,23.10
2016,08,18,10,30,23.20
2016,08,18,10,31,23.20
2016,08,18,10,32,23.20
2016,08,18,10,33,23.30
2016,08,18,10,34,23.30
2016,08,18,10,35,23.20
2016,08,18,10,36,23.10
2016,08,18,10,37,23.10
2016,08,18,10,38,23.00
2016,08,18,10,39,23.00
2016,08,18,10,40,23.00
2016,08,18,10,41,23.00
2016,08,18,10,42,23.10
2016,08,18,10,43,23.10
2016,08,18,10,44,23.10
2016,08,18,10,45,23.10
2016,08,18,10,46,23.10
2016,08,18,10,47,23.10
2016,08,18,10,48,23.10
2016,08,18,10,49,23.10
2016,08,18,10,50,23.20
2016,08,18,10,51,23.30
2016,08,18,10,52,23.30
2016,08,18,10,53,23.40
2016,08,18,10,54,23.50
2016,08,18,10,55,23.60
2016,08,18,10,56,23.60
2016,08,18,10,57,23.70
2016,08,18,10,58,23.70
2016,08,18,10,59,23.80
2016,08,18,11,00,23.80
2016,08,18,11,01,23.90
2016,08,18,11,02,23.90
2016,08,18,11,03,24.00
2016,08,18,11,04,24.10
2016,08,18,11,05,24.10
2016,08,18,11,06,24.10
2016,08,18,11,07,24.10
2016,08,18,11,08,24.10
2016,08,18,11,09,24.10
2016,08,18,11,10,24.10
2016,08,18,11,11,24.10
2016,08,18,11,12,24.00
2016,08,18,11,13,24.00
2016,08,18,11,14,24.00
2016,08,18,11,15,23.90
2016,08,18,11,16,23.90
2016,08,18,11,17,23.80
2016,08,18,11,18,23.80
2016,08,18,11,19,23.80
2016,08,18,11,20,23.80
2016,08,18,11,21,23.90
2016,08,18,11,22,23.90
2016,08,18,11,23,24.00
2016,08,18,11,24,24.00
2016,08,18,11,25,24.10
2016,08,18,11,26,24.10
2016,08,18,11,27,24.20
2016,08,18,11,28,24.20
2016,08,18,11,29,24.20
2016,08,18,11,30,24.30
2016,08,18,11,31,24.30
2016,08,18,11,32,24.40
2016,08,18,11,33,24.40
2016,08,18,11,34,24.40
2016,08,18,11,35,24.50
2016,08,18,11,36,24.50
2016,08,18,11,37,24.50
2016,08,18,11,38,24.50
2016,08,18,11,39,24.60
2016,08,18,11,40,24.60
2016,08,18,11,41,24.60
2016,08,18,11,42,24.60
2016,08,18,11,43,24.70
2016,08,18,11,44,24.80
2016,08,18,11,45,24.80
2016,08,18,11,46,24.90
2016,08,18,11,47,24.90
2016,08,18,11,48,24.80
2016,08,18,11,49,24.80
2016,08,18,11,50,24.90
2016,08,18,11,51,24.90
2016,08,18,11,52,25.00
2016,08,18,11,53,25.10
2016,08,18,11,54,25.10
2016,08,18,11,55,25.10
2016,08,18,11,56,25.10
2016,08,18,11,57,25.20
2016,08,18,11,58,25.20
2016,08,18,11,59,25.20
2016,08,18,12,00,25.20
2016,08,18,12,01,25.30
2016,08,18,12,02,25.30
2016,08,18,12,03,25.30
2016,08,18,12,04,25.30
2016,08,18,12,05,25.30
2016,08,18,12,06,25.40
2016,08,18,12,07,25.40
2016,08,18,12,08,25.50
2016,08,18,12,09,25.50
2016,08,18,12,10,25.60
2016,08,18,12,11,25.60
2016,08,18,12,12,25.70
2016,08,18,12,13,25.80
2016,08,18,12,14,25.80
2016,08,18,12,15,26.00
2016,08,18,12,16,26.10
2016,08,18,12,17,26.20
2016,08,18,12,18,26.30
2016,08,18,12,19,26.40
2016,08,18,12,20,26.40
2016,08,18,12,21,26.50
2016,08,18,12,22,26.50
2016,08,18,12,23,26.40
2016,08,18,12,24,26.30
2016,08,18,12,25,26.30
2016,08,18,12,26,26.30
2016,08,18,12,27,26.20
2016,08,18,12,28,26.10
2016,08,18,12,29,26.00
2016,08,18,12,30,26.00
2016,08,18,12,31,26.00
2016,08,18,12,32,26.00
2016,08,18,12,33,26.10
2016,08,18,12,34,26.10
2016,08,18,12,35,26.20
2016,08,18,12,36,26.30
2016,08,18,12,37,26.40
2016,08,18,12,38,26.50
2016,08,18,12,39,26.50
2016,08,18,12,40,26.60
2016,08,18,12,41,26.60
2016,08,18,12,42,26.70
2016,08,18,12,43,26.70
2016,08,18,12,44,26.70
2016,08,18,12,45,26.80
2016,08,18,12,46,26.80
2016,08,18,12,47,26.90
2016,08,18,12,48,26.90
2016,08,18,12,49,27.00
2016,08,18,12,50,27.00
2016,08,18,12,51,27.10
2016,08,18,12,52,27.10
2016,08,18,12,53,27.10
2016,08,18,12,54,27.20
2016,08,18,12,55,27.40
2016,08,18,12,56,27.50
2016,08,18,12,57,27.60
2016,08,18,12,58,27.70
2016,08,18,12,59,27.80
2016,08,18,13,00,27.90
2016,08,18,13,01,28.00
2016,08,18,13,02,28.10
2016,08,18,13,03,28.20
2016,08,18,13,04,28.20
2016,08,18,13,05,28.10
2016,08,18,13,06,28.00
2016,08,18,13,07,27.80
2016,08,18,13,08,27.60
2016,08,18,13,09,27.40
2016,08,18,13,10,27.30
2016,08,18,13,11,27.20
2016,08,18,13,12,27.10
2016,08,18,13,13,27.10
2016,08,18,13,14,27.10
2016,08,18,13,15,27.10
2016,08,18,13,16,27.20
2016,08,18,13,17,27.30
2016,08,18,13,18,27.50
2016,08,18,13,19,27.80
2016,08,18,13,20,28.20
2016,08,18,13,21,28.40
2016,08,18,13,22,28.60
2016,08,18,13,23,28.70
2016,08,18,13,24,28.90
2016,08,18,13,25,29.00
2016,08,18,13,26,29.10
2016,08,18,13,27,29.10
2016,08,18,13,28,29.10
2016,08,18,13,29,29.10
2016,08,18,13,30,29.10
2016,08,18,13,31,29.10
2016,08,18,13,32,29.10
2016,08,18,13,33,29.20
2016,08,18,13,34,29.20
2016,08,18,13,35,29.20
2016,08,18,13,36,29.30
2016,08,18,13,37,29.30
2016,08,18,13,38,29.40
2016,08,18,13,39,29.40
2016,08,18,13,40,29.40
2016,08,18,13,41,29.40
2016,08,18,13,42,29.40
2016,08,18,13,43,29.40
2016,08,18,13,44,29.40
2016,08,18,13,45,29.50
2016,08,18,13,46,29.50
2016,08,18,13,47,29.50
2016,08,18,13,48,29.50
2016,08,18,13,49,29.50
2016,08,18,13,50,29.40
2016,08,18,13,51,29.40
2016,08,18,13,52,29.40
2016,08,18,13,53,29.30
2016,08,18,13,54,29.40
2016,08,18,13,55,29.30
2016,08,18,13,56,29.30
2016,08,18,13,57,29.30
2016,08,18,13,58,29.30
2016,08,18,13,59,29.30
2016,08,18,14,00,29.20
2016,08,18,14,01,29.20
2016,08,18,14,02,29.10
2016,08,18,14,03,29.00
2016,08,18,14,04,29.00
2016,08,18,14,05,28.90
2016,08,18,14,06,28.90
2016,08,18,14,07,28.80
2016,08,18,14,08,28.80
2016,08,18,14,09,28.80
2016,08,18,14,10,28.70
2016,08,18,14,11,28.60
2016,08,18,14,12,28.50
2016,08,18,14,13,28.40
2016,08,18,14,14,28.30
2016,08,18,14,15,28.20
2016,08,18,14,16,28.10
2016,08,18,14,17,27.90
2016,08,18,14,18,27.80
2016,08,18,14,19,27.70
2016,08,18,14,20,27.60
2016,08,18,14,21,27.50
2016,08,18,14,22,27.40
2016,08,18,14,23,27.40
2016,08,18,14,24,27.40
2016,08,18,14,25,27.40
2016,08,18,14,26,27.40
2016,08,18,14,27,27.30
2016,08,18,14,28,27.20
2016,08,18,14,29,27.10
2016,08,18,14,30,27.00
2016,08,18,14,31,26.90
2016,08,18,14,32,26.80
2016,08,18,14,33,26.70
2016,08,18,14,34,26.70
2016,08,18,14,35,26.70
2016,08,18,14,36,26.60
2016,08,18,14,37,26.70
2016,08,18,14,38,26.70
2016,08,18,14,39,26.70
2016,08,18,14,40,26.80
2016,08,18,14,41,26.80
2016,08,18,14,42,26.80
2016,08,18,14,43,26.80
2016,08,18,14,44,26.90
2016,08,18,14,45,26.90
2016,08,18,14,46,27.00
2016,08,18,14,47,27.00
2016,08,18,14,48,26.90
2016,08,18,14,49,26.90
2016,08,18,14,50,26.80
2016,08,18,14,51,26.80
2016,08,18,14,52,26.80
2016,08,18,14,53,26.80
2016,08,18,14,54,26.90
2016,08,18,14,55,26.90
2016,08,18,14,56,27.00
2016,08,18,14,57,27.10
2016,08,18,14,58,27.10
2016,08,18,14,59,27.20
2016,08,18,15,00,27.30
2016,08,18,15,01,27.30
2016,08,18,15,02,27.40
2016,08,18,15,03,27.50
2016,08,18,15,04,27.50
2016,08,18,15,05,27.50
2016,08,18,15,06,27.50
2016,08,18,15,07,27.50
2016,08,18,15,08,27.50
2016,08,18,15,09,27.50
2016,08,18,15,10,27.50
2016,08,18,15,11,27.40
2016,08,18,15,12,27.40
2016,08,18,15,13,27.40
2016,08,18,15,14,27.40
2016,08,18,15,15,27.40
2016,08,18,15,16,27.40
2016,08,18,15,17,27.40
2016,08,18,15,18,27.40
2016,08,18,15,19,27.40
2016,08,18,15,20,27.40
2016,08,18,15,21,27.40
2016,08,18,15,22,27.50
2016,08,18,15,23,27.50
2016,08,18,15,24,27.60
2016,08,18,15,25,27.70
2016,08,18,15,26,27.80
2016,08,18,15,27,27.80
2016,08,18,15,28,27.80
2016,08,18,15,29,27.80
2016,08,18,15,30,27.90
2016,08,18,15,31,27.90
2016,08,18,15,32,27.90
2016,08,18,15,33,27.90
2016,08,18,15,34,27.90
2016,08,18,15,35,27.90
2016,08,18,15,36,28.00
2016,08,18,15,37,28.00
2016,08,18,15,38,28.00
2016,08,18,15,39,28.00
2016,08,18,15,40,28.00
2016,08,18,15,41,28.00
2016,08,18,15,42,28.00
2016,08,18,15,43,28.10
2016,08,18,15,44,28.20
2016,08,18,15,45,28.30
2016,08,18,15,46,28.30
2016,08,18,15,47,28.40
2016,08,18,15,48,28.50
2016,08,18,15,49,28.50
2016,08,18,15,50,28.60
2016,08,18,15,51,28.70
2016,08,18,15,52,28.70
2016,08,18,15,53,28.70
2016,08,18,15,54,28.70
2016,08,18,15,55,28.70
2016,08,18,15,56,28.70
2016,08,18,15,57,28.70
2016,08,18,15,58,28.70
2016,08,18,15,59,28.70
2016,08,18,16,00,28.70
2016,08,18,16,01,28.70
2016,08,18,16,02,28.70
2016,08,18,16,03,28.70
2016,08,18,16,04,28.70
2016,08,18,16,05,28.70
2016,08,18,16,06,28.70
2016,08,18,16,07,28.60
2016,08,18,16,08,28.60
2016,08,18,16,09,28.70
2016,08,18,16,10,28.70
2016,08,18,16,11,28.70
2016,08,18,16,12,28.70
2016,08,18,16,13,28.70
2016,08,18,16,14,28.70
2016,08,18,16,15,28.70
2016,08,18,16,16,28.60
2016,08,18,16,17,28.60
2016,08,18,16,18,28.60
2016,08,18,16,19,28.70
2016,08,18,16,20,28.70
2016,08,18,16,21,28.70
2016,08,18,16,22,28.70
2016,08,18,16,23,28.70
2016,08,18,16,24,28.70
2016,08,18,16,25,28.70
2016,08,18,16,26,28.60
2016,08,18,16,27,28.60
2016,08,18,16,28,28.50
2016,08,18,16,29,28.40
2016,08,18,16,30,28.40
2016,08,18,16,31,28.30
2016,08,18,16,32,28.30
2016,08,18,16,33,28.30
2016,08,18,16,34,28.30
2016,08,18,16,35,28.30
2016,08,18,16,36,28.30
2016,08,18,16,37,28.40
2016,08,18,16,38,28.50
2016,08,18,16,39,28.50
2016,08,18,16,40,28.60
2016,08,18,16,41,28.60
2016,08,18,16,42,28.60
2016,08,18,16,43,28.60
2016,08,18,16,44,28.60
2016,08,18,16,45,28.60
2016,08,18,16,46,28.60
2016,08,18,16,47,28.60
2016,08,18,16,48,28.50
2016,08,18,16,49,28.50
2016,08,18,16,50,28.40
2016,08,18,16,51,28.40
2016,08,18,16,52,28.40
2016,08,18,16,53,28.40
2016,08,18,16,54,28.40
2016,08,18,16,55,28.50
2016,08,18,16,56,28.50
2016,08,18,16,57,28.60
2016,08,18,16,58,28.60
2016,08,18,16,59,28.60
2016,08,18,17,00,28.60
2016,08,18,17,01,28.60
2016,08,18,17,02,28.60
2016,08,18,17,03,28.60
2016,08,18,17,04,28.60
2016,08,18,17,05,28.60
2016,08,18,17,06,28.60
2016,08,18,17,07,28.60
2016,08,18,17,08,28.60
2016,08,18,17,09,28.60
2016,08,18,17,10,28.60
2016,08,18,17,11,28.70
2016,08,18,17,12,28.70
2016,08,18,17,13,28.80
2016,08,18,17,14,28.90
2016,08,18,17,15,28.90
2016,08,18,17,16,29.00
2016,08,18,17,17,29.10
2016,08,18,17,18,29.10
2016,08,18,17,19,29.20